Location: Newark
(39.0083°N, 20.7336°E)
Time: 20:31:27
(UTC+00:00)

N. Korean satellite - Pass Details

Date: 19 September 2021
Orbit: 450 x 495 km, 97.3° (Epoch: 25 October)

Event Time Altitude Azimuth Distance (km) Brightness Sun altitude
Rises 03:13:33 0° 25° (NNE) 2,507 10.8 -14.0°
Reaches altitude 10° 03:15:52 10° 40° (NE) 1,634 10.0 -13.5°
Maximum altitude 03:18:47 24° 96° (E) 1,011 9.1 -13.0°
Drops below altitude 10° 03:21:43 10° 153° (SSE) 1,645 9.4 -12.4°
Sets 03:24:03 0° 167° (SSE) 2,528 10.2 -12.0°
